[TLELIST] Archives

 

[TLELIST] Current TLEs

January 16th 2026 PST

0 HST 1 20580U 90037B 26016.33612043 .00005564 00000-0 18677-3 0 9993 2 20580 28.4678 36.9088 0001789 242.6076 117.4337 15.28551886765292 0 ISS (ZARYA) 1 25544U 98067A 26016.24061751 .00009246 00000-0 17374-3 0 9997 2 25544 51.6334 331.6741 0007782 24.2843 335.8511 15.49322747548205 0 CXO 1 25867U 99040B 26002.77389708 .00000599 00000-0 00000-0 0 9992 2 25867 53.4579 121.7282 8107582 310.8774 0.1301 0.37803565 16703 ...Continue Reading

[TLELIST] Current TLEs

January 16th 2026 PST

0 HST 1 20580U 90037B 26016.33612043 .00005564 00000-0 18677-3 0 9993 2 20580 28.4678 36.9088 0001789 242.6076 117.4337 15.28551886765292 0 ISS (ZARYA) 1 25544U 98067A 26016.24061751 .00009246 00000-0 17374-3 0 9997 2 25544 51.6334 331.6741 0007782 24.2843 335.8511 15.49322747548205 0 CXO 1 25867U 99040B 26002.77389708 .00000599 00000-0 00000-0 0 9992 2 25867 53.4579 121.7282 8107582 310.8774 0.1301 0.37803565 16703 ...Continue Reading

[TLELIST] Current TLEs

January 15th 2026 PST

0 HST 1 20580U 90037B 26015.09560905 .00004438 00000-0 14752-3 0 9993 2 20580 28.4676 45.3592 0001846 227.4051 132.6389 15.28538258765106 0 ISS (ZARYA) 1 25544U 98067A 26014.88606923 .00006740 00000-0 12902-3 0 9999 2 25544 51.6333 338.3791 0007761 18.9639 341.1637 15.49293899547992 0 CXO 1 25867U 99040B 26002.77389708 .00000599 00000-0 00000-0 0 9992 2 25867 53.4579 121.7282 8107582 310.8774 0.1301 0.37803565 16703 ...Continue Reading

[TLELIST] Current TLEs

January 14th 2026 PST

0 HST 1 20580U 90037B 26013.52863456 .00005011 00000-0 16760-3 0 9995 2 20580 28.4674 56.0330 0001959 208.9893 151.0594 15.28523711764869 0 ISS (ZARYA) 1 25544U 98067A 26014.17653439 .00007605 00000-0 14457-3 0 9993 2 25544 51.6332 341.8911 0007763 16.2553 343.8684 15.49283642547886 0 CXO 1 25867U 99040B 26002.77389708 .00000599 00000-0 00000-0 0 9992 2 25867 53.4579 121.7282 8107582 310.8774 0.1301 0.37803565 16703 ...Continue Reading

[TLELIST] Current TLEs

January 13th 2026 PST

0 HST 1 20580U 90037B 26013.20217980 .00005464 00000-0 18345-3 0 9998 2 20580 28.4673 58.2564 0001987 205.0098 155.0401 15.28521186764817 0 ISS (ZARYA) 1 25544U 98067A 26013.20897862 .00008852 00000-0 16699-3 0 9991 2 25544 51.6330 346.6801 0007741 12.6584 347.4598 15.49269250547732 0 CXO 1 25867U 99040B 26002.77389708 .00000599 00000-0 00000-0 0 9992 2 25867 53.4579 121.7282 8107582 310.8774 0.1301 0.37803565 16703 ...Continue Reading

[TLELIST] Current TLEs

January 12th 2026 PST

0 HST 1 20580U 90037B 26012.28810262 .00007324 00000-0 24855-3 0 9997 2 20580 28.4671 64.4829 0002040 194.5967 165.4569 15.28511891764672 0 ISS (ZARYA) 1 25544U 98067A 26012.17690827 .00009276 00000-0 17471-3 0 9998 2 25544 51.6333 351.7881 0007723 8.9804 351.1321 15.49250518547578 0 CXO 1 25867U 99040B 26002.77389708 .00000599 00000-0 00000-0 0 9992 2 25867 53.4579 121.7282 8107582 310.8774 0.1301 0.37803565 16703 ...Continue Reading

[TLELIST] Current TLEs

January 11th 2026 PST

0 HST 1 20580U 90037B 26010.85168127 .00007215 00000-0 24490-3 0 9998 2 20580 28.4669 74.2672 0002140 179.3413 180.7186 15.28490865764450 0 ISS (ZARYA) 1 25544U 98067A 26011.20933053 .00010931 00000-0 20450-3 0 9993 2 25544 51.6335 356.5770 0007704 5.3714 354.7355 15.49231619547421 0 CXO 1 25867U 99040B 26002.77389708 .00000599 00000-0 00000-0 0 9992 2 25867 53.4579 121.7282 8107582 310.8774 0.1301 0.37803565 16703 ...Continue Reading

[TLELIST] Current TLEs

January 10th 2026 PST

0 HST 1 20580U 90037B 26009.48053356 .00008269 00000-0 28192-3 0 9995 2 20580 28.4667 83.6067 0002264 165.3407 194.7254 15.28472728764241 0 ISS (ZARYA) 1 25544U 98067A 26009.79019308 .00009674 00000-0 18216-3 0 9991 2 25544 51.6333 3.6003 0007672 0.0842 0.0147 15.49200529547208 0 CXO 1 25867U 99040B 26002.77389708 .00000599 00000-0 00000-0 0 9992 2 25867 53.4579 121.7282 8107582 310.8774 0.1301 0.37803565 16703 ...Continue Reading

[TLELIST] Current TLEs

January 9th 2026 PST

0 HST 1 20580U 90037B 26008.89289380 .00006776 00000-0 22974-3 0 9990 2 20580 28.4664 87.6091 0002262 157.8382 202.2311 15.28461267764150 0 ISS (ZARYA) 1 25544U 98067A 26009.20962921 .00010689 00000-0 20045-3 0 9996 2 25544 51.6334 6.4737 0007677 357.8776 2.2179 15.49190279547117 0 CXO 1 25867U 99040B 26002.77389708 .00000599 00000-0 00000-0 0 9992 2 25867 53.4579 121.7282 8107582 310.8774 0.1301 0.37803565 16703 ...Continue Reading

[TLELIST] Current TLEs

January 8th 2026 PST

0 HST 1 20580U 90037B 26008.23995640 .00007766 00000-0 26447-3 0 9990 2 20580 28.4664 92.0566 0002314 151.6802 208.3920 15.28452886764053 0 ISS (ZARYA) 1 25544U 98067A 26008.24201257 .00009406 00000-0 17753-3 0 9994 2 25544 51.6331 11.2620 0007619 354.1778 5.9120 15.49170014546960 0 CXO 1 25867U 99040B 26002.77389708 .00000599 00000-0 00000-0 0 9992 2 25867 53.4579 121.7282 8107582 310.8774 0.1301 0.37803565 16703 ...Continue Reading
  • This mailing list is a public mailing list - anyone may join or leave, at any time.
  • This mailing list is announce-only.

International Space Station (ISS) / Hubble Space Telescope (HST) / Chandra X-Ray Observatory Orbital Data via EMAIL

Privacy Policy:

Private list